sat.trackr.live / text

‹ back to catalog

JCSAT-2B

NORAD 41471 · 2016-028A

PAYLOAD ACTIVE UNKNOWN

§ Identity

Operator
Country
JPN
Launch date
2016-05-06
Launch site
AFETR
Launch vehicle
Mass (kg)
RCS (m²)
9.86

Purposes: comms

External: N2YO · Heavens-Above · Gunter

§ Orbital elements

Epoch: 2026-09-04T04:43:38.872416Z

Period
1,436.12 min
Inclination
0.0179°
Eccentricity
0.0001019
Mean motion
1.00270090 rev/d
Perigee alt
35,782.8 km
Apogee alt
35,791.4 km
Semi-major
42,165.2 km
B*
0.0000e+0
RAAN
146.0369°
Arg perigee
34.6474°
Mean anomaly
27.5537°
Rev number
3,792

§ Raw data

JCSAT-2B1 41471U 16028A   26247.19697769 -.00000171  00000+0  00000+0 0  99972 41471   0.0179 146.0369 0001019  34.6474  27.5537  1.00270090 37923

JSON: /api/v1/satellites/41471 · /tle

For live sub-satellite position, see the globe view (requires WebGL).

§ Visibility from observer

Set your observer location to see the next 7 days of passes ≥ 10°. The values pass through the URL so the page stays shareable.

No JS? Fill the form by hand. The geolocation button needs JavaScript.